{"data":{"norad_id":59713,"intl_designator":"2024-088F","name":"STARLINK-11100 [DTC]","alt_names":[],"object_type":"PAYLOAD","status":"ACTIVE","operator":null,"country":"US","launch_date":"2024-05-10","launch_site_code":"AFWTR","launch_vehicle":null,"mission":null,"orbit_class":"UNKNOWN","rcs_meters":null,"size_class":null,"mass_kg":null,"dimensions":null,"purposes":["comms"],"wikipedia_slug":null,"has_3d_model":false,"image_url":null,"decayed_at":null,"tle_current":{"epoch":"2026-05-25T04:08:17.615040Z","epoch_age_seconds":60492,"freshness":"FRESH","line1":"1 59713U 24088F   26145.17242610  .00001983  00000+0  21220-4 0  9999","line2":"2 59713  53.1593 309.3161 0000688  91.3658 268.7438 15.69710144118286","mean_motion":15.69710144,"eccentricity":6.88e-5,"inclination_deg":53.1593,"raan_deg":309.3161,"arg_perigee_deg":91.3658,"mean_anomaly_deg":268.7438,"bstar":2.122e-5,"rev_number":11828,"period_min":91.736681801045,"perigee_km":359.26277334925,"apogee_km":360.18990334461,"semimajor_km":6737.8633383469,"source":"CELESTRAK","updated_at":"2026-05-25T13:38:19.046385Z"}}}